Погода Закаталы

Погода Закаталы : погода сейчас, прогноз погоды и архив. Всё, что Вы хотите узнать о погоде Закаталы!

Поиск расширенной информации на нашем сайте:

Другие новости

Новости СМИ2

Главная страница сайта

Новости сайта

03.07.2017

Напоминаем, что на нашем специализированном сайте Метеоцентр.Азия вы можете получить высокодетализированные автоматические прогнозы погоды по пунктам России, СНГ и мира в авиационном формате (включающие направление и скорость ветра, видимость, явления погоды, количество и форму облачности, нижнюю и верхнюю границу облачности).


Погода Закаталы - сегодня

Время (UTC), дата Ветер
(°,м/с) 
Видим.   Явления Облачность Т
(°С)
Тd
(°С)
f(%) Тe
(°С)
Pmin
(гПа)
dP
(гПа)
Po
(мм)
O2
(г/м3)
Тmin Tmax R s Состояние
почвы
03 23.07.17 050 (СВ) 20000 м    3/0 средняя 
[Ac und]
+24.2 +11.9 46 +29  1010.5  -0.2  717  263           
09 23.07.17 270 (З) 20000 м    4/0 средняя 
[Ac und]
+32.6 +16.5 38 +45  1007.5  -1.3  716  254           
12 23.07.17 180 (Ю) 20000 м    4/0 средняя 
[Ac und]
+34.6 +15.8 33 +46  1006.4  -0.7  715  252           
15 23.07.17 050 (СВ) 20000 м    8/8 1000 м средняя 
[Sc|Ac und]
+30.6 +16 41 +42  1007.1  715  256           
21 23.07.17 050 (СВ) 4000 м  гроза без осадков  8/8 1000 м кучево-дожд. 
[Cb cap]
+27.1 +13.4 43 +34  1018.3  716  260           
00 24.07.17 320 (СЗ) 4000 м  гроза без осадков  8/8 1000 м кучево-дожд. 
[Cb cap]
+24.9 +13.2 48 +32  1018.3  -0.4  715  262           
03 24.07.17 050 (СВ) 20000 м    6/6 1000 м кучево-дожд. 
[Cb cap]
+19.8 +17.8 88 +36  1010.1  0.9  716  265      0.0     
09 24.07.17 360 (С) 20000 м    1/0 средняя 
[Ac und]
+30.1 +17.7 47 +45  1009.1  -1  717  256           
12 24.07.17 160 (Ю) 20000 м    1/0 средняя 
[Ac und]
+32.4 +17.3 41 +47  1007.3  -1.2  716  254           
15 24.07.17 160 (Ю) 20000 м    4/0 средняя 
[Ac und]
+30.9 +17 43 +45  1007  -0.7  715  255           
21 24.07.17 160 (Ю) 4000 м    8/0 средняя 
[Ac und]
+26.1 +17.1 58 +40  1009.5  716  260           
00 25.07.17 320 (СЗ) 4000 м  слаб. дождь  10/10 1000 м 
[Cu med, cong]
+22.5 +18.9 80 +40  1011.7  1.4  718  263           
09 25.07.17 270 (З) 20000 м    3/3 1500 м 
[Cu med, cong]
+28.8 +17.3 50 +43  1007.5  -1.3  715  257           
12 25.07.17 250 (З) 20000 м    3/3 1500 м 
[Cu med, cong]
+31.3 +16.4 41 +44  1005.2  -1.7  714  255           
15 25.07.17 270 (З) 20000 м    4/4 1000 м средняя 
[Sc|Ac und]
+30.7 +16.2 42 +43  1005  -0.3  714  255           
18 25.07.17 050 (СВ) 20000 м    ясно 
+26.6 +15.7 51 +38  1006.4  0.7  714  259    +32       
21 25.07.17 360 (С) 4000 м    6/6 1000 м средняя 
[Sc|Ac und]
+25.9 +15.8 54 +37  1006.6  714  259           
00 26.07.17 050 (СВ) 20000 м    4/0 средняя 
[Ac und]
+23.4 +15.4 61 +34  1008  0.9  715  262           
03 26.07.17 360 (С) 20000 м    8/0 средняя, верхняя 
[Ac und|Ci sp]
+25.1 +15.6 56 +36  1006.3  -1.3  714  260           
06 26.07.17 180 (Ю) 20000 м    1/0 средняя 
[Ac und]
+27.1 +18.1 58 +43  1016.5  0.6  714  258           
09 26.07.17 070 (В) 20000 м    3/0 средняя 
[Ac und]
+29.9 +17.9 49 +46  1006.1  714  255           
12 26.07.17 230 (ЮЗ) 20000 м    1/1 1000 м 
[Cu med, cong]
+33.1 +16.8 38 +47  1005.4  -0.1  714  253           
15 26.07.17 180 (Ю) 20000 м    1/1 1000 м 
[Cu med, cong]
+32.3 +16.9 40 +46  1005.3  -0.2  714  254           
18 26.07.17 050 (СВ) 20000 м    ясно 
+27.7 +17.7 55 +43  1008.3  716  258    +34       
21 26.07.17 050 (СВ) 20000 м    3/0 средняя 
[Ac und]
+26.3 +17.4 58 +41  1009.1  0.5  716  259           
Время (UTC), дата Ветер
(°,м/с) 
Видим.   Явления Облачность Т
(°С)
Тd
(°С)
f(%) Тe
(°С)
Pmin
(гПа)
dP
(гПа)
Po
(мм)
O2
(г/м3)
Тmin Tmax R s Состояние
почвы

Для получения пояснительной информации подведите курсор к названию столбца.

ПОГОДА Закаталы - архив

Всё, что Вы хотите узнать о погоде Закаталы - удобно и подробно!

Выберите нужную дату (начиная с 1 января 2015* года) и нажмите кнопку "Найти".
Будут отображены архивные сводки погоды по пункту Закаталы, начиная с указанной даты.


Отображать данные в формате CSV (для использования в таблицах Excel)


Внимание! Наш архив погоды предназначен исключительно для личного некоммерческого использования в познавательных целях. Если Вам необходимы официальные справки о состоянии погоды (для производственных, юридических, коммерческих и т.п. целей), обращайтесь в органы Росгидромета.

*Примечание: данная дата относится к архиву по метеостанциям СССР (Россия, СНГ, Балтия).
Архив по метеостанциям Зарубежной Европы и Азии (кроме Китая) хранится 10 дней, по другим регионам земного шара (Китай, Африка, Америка, Австралия, Океания) - 1 день.

Закаталы - район местоположения метеостанции


Название, широта, долгота, высота метеостанции:
Закаталы 41.6°ш. 46.6°д. 490 м над ур. моря [Азербайджан]

Дополнительная информация

В oтличие oт бoльшинства пoгoдных сайтoв мы публикуем пoдрoбную метеoинфoрмацию в детальнoм прoфессиoнальнoм фoрмате.

Характеристики температуры и влажнoсти вoздуха измеряются на высoте 2 м в тени вдали oт зданий и деревьев.
Скoрoсть ветра измеряется на высoте 10 м (на урoвне рoста челoвека скoрoсть ветра ниже в 1.5-2 раза). Если метеoстанция нахoдится в гoрoде или в лесу, тo скoрoсть ветра занижена на 2-4 м/с пo сравнению с oткрытым местoм. Скoрoсть ветра над акватoриями крупных рек и oзёр, а также на вершинах хoлмoв на 2-5 м/с выше, чем в oбычных услoвиях.
Атмoсфернoе давление в разных тoчках местнoсти мoжет значительнo oтличаться oт давления на метеoстанции, в зависимoсти oт услoвий рельефа (при пoдъёме на 10 м давление пoнижается примернo на 1 мм рт.ст.).